Find OneWeb SL0565

NORAD ID: 55146 Int'l Des: 2023-004 Owner: ONEWEBN Country: UK Constellation: oneweb operational
LEOCIRCULARPOLARONEWEB_TYPE

实时位置

正在加载3D地球...

关于 OneWeb SL0565

正在加载描述...

即将过境

Passes for default location (London). Set your location on the main map for personalized predictions.

高度历史

Loading altitude history...

两行轨道根数

1 55146U 23004G 26127.85319544 .00000080 00000-0 17084-3 0 9998
2 55146 87.9170 343.5182 0001378 84.8603 275.2687 13.18684689164382
Epoch: May 7, 2026 • Age: 9 hours

当前状态

高度 1194.4 km
速度 7.26 km/s
星下点 38.25°N, 32.38°E
发射日期 Jan 10, 2023
运行时间 3.3 years
类型 internet

技术详情

分类 Payload
质量 148.00 kg
干质量 140.00 kg
总质量 148.00 kg
长度 1.30 m
直径 1.00 m
跨度 5.00 m
形状 Trapezoid+2 pan
制造商 ONEWUS
平台类型 ARROW
阶段状态 In Orbit
所有者/国家 ONEWEBN/UK

Most Searched